Location: Gloden
(48.4833°N, 15.3167°E)
Time: 23:51:15
(UTC+00:00)

Cosmos 1850 Rocket - Pass Details

Date: 15 December 2019
Orbit: 754 x 786 km, 74.0° (Epoch: 22 January)

Event Time Altitude Azimuth Distance (km) Brightness Sun altitude
Exits shadow 03:38:28 54° 151° (SSE) 952 4.5 -29.4°
Drops below altitude 10° 03:42:32 10° 157° (SSE) 2,337 6.8 -28.8°
Sets 03:44:55 0° 158° (SSE) 3,259 7.6 -28.4°
